Time,TemperatureF,DewpointF,PressureIn,WindDirection,WindDirectionDegrees,WindSpeedMPH,WindSpeedGustMPH,Humidity,HourlyPrecipIn,Conditions,Clouds,dailyrainin,SoftwareType,DateUTC
2013-02-24 00:00:00,37.6,36.8,29.81,NNW,338,0.0,2.0,97,0.00,,---,0.00,VWS V14.01,2013-02-24 05:00:00,
2013-02-24 00:15:00,37.6,36.8,29.81,NNW,338,0.0,2.0,97,0.00,,---,0.00,VWS V14.01,2013-02-24 05:15:00,
2013-02-24 00:30:00,37.5,36.7,29.81,NNW,338,0.0,0.0,97,0.00,,---,0.00,VWS V14.01,2013-02-24 05:30:00,
2013-02-24 00:45:00,37.5,37.0,29.80,NNW,338,0.0,0.0,98,0.01,,---,0.01,VWS V14.01,2013-02-24 05:45:00,
2013-02-24 01:00:00,37.3,36.8,29.81,NNW,338,0.0,0.0,98,0.01,,---,0.01,VWS V14.01,2013-02-24 06:00:00,
2013-02-24 01:15:00,37.2,36.7,29.80,NNW,338,0.0,0.0,98,0.01,,---,0.01,VWS V14.01,2013-02-24 06:15:00,
2013-02-24 01:30:00,37.3,36.8,29.80,NNW,338,0.0,2.0,98,0.01,,---,0.01,VWS V14.01,2013-02-24 06:30:00,
2013-02-24 01:45:00,37.3,36.8,29.80,NNW,338,0.0,3.0,98,0.01,,---,0.01,VWS V14.01,2013-02-24 06:45:00,
2013-02-24 02:00:00,37.3,36.8,29.80,NNW,338,1.0,4.0,98,0.00,,---,0.01,VWS V14.01,2013-02-24 07:00:00,
2013-02-24 02:15:00,37.3,36.8,29.80,NNW,338,1.0,4.0,98,0.00,,---,0.01,VWS V14.01,2013-02-24 07:15:00,
2013-02-24 02:30:00,37.2,36.7,29.80,WSW,248,0.0,3.0,98,0.00,,---,0.01,VWS V14.01,2013-02-24 07:30:00,
2013-02-24 02:45:00,37.2,36.7,29.80,WSW,248,0.0,2.0,98,0.00,,---,0.01,VWS V14.01,2013-02-24 07:45:00,
2013-02-24 03:00:00,37.0,36.5,29.80,WSW,248,0.0,0.0,98,0.00,,---,0.01,VWS V14.01,2013-02-24 08:00:00,
2013-02-24 03:15:00,36.8,36.3,29.80,WSW,248,0.0,2.0,98,0.00,,---,0.01,VWS V14.01,2013-02-24 08:15:00,
2013-02-24 03:30:00,36.8,36.3,29.79,WSW,248,0.0,3.0,98,0.00,,---,0.01,VWS V14.01,2013-02-24 08:30:00,
2013-02-24 03:45:00,36.5,36.0,29.79,WNW,292,1.0,3.0,98,0.00,,---,0.01,VWS V14.01,2013-02-24 08:45:00,
2013-02-24 04:00:00,36.2,35.7,29.78,NNW,338,1.0,4.0,98,0.00,,---,0.01,VWS V14.01,2013-02-24 09:00:00,
2013-02-24 04:15:00,35.8,35.3,29.77,North,0,0.0,2.0,98,0.00,,---,0.01,VWS V14.01,2013-02-24 09:15:00,
2013-02-24 04:30:00,35.6,34.8,29.77,North,0,0.0,3.0,97,0.00,,---,0.01,VWS V14.01,2013-02-24 09:30:00,
2013-02-24 04:45:00,35.6,35.1,29.78,North,0,1.0,4.0,98,0.00,,---,0.01,VWS V14.01,2013-02-24 09:45:00,
2013-02-24 05:00:00,35.8,35.3,29.77,WNW,292,0.0,3.0,98,0.00,,---,0.01,VWS V14.01,2013-02-24 10:00:00,
2013-02-24 05:15:00,36.0,35.5,29.78,WSW,248,1.0,4.0,98,0.00,,---,0.01,VWS V14.01,2013-02-24 10:15:00,
2013-02-24 05:30:00,36.3,35.8,29.78,NW,315,1.0,5.0,98,0.00,,---,0.01,VWS V14.01,2013-02-24 10:30:00,
2013-02-24 05:45:00,36.5,36.0,29.77,NW,315,1.0,6.0,98,0.00,,---,0.01,VWS V14.01,2013-02-24 10:45:00,
2013-02-24 06:00:00,36.5,35.7,29.78,WNW,292,0.0,3.0,97,0.00,,---,0.01,VWS V14.01,2013-02-24 11:00:00,
2013-02-24 06:15:00,36.2,35.4,29.77,WNW,292,0.0,1.0,97,0.00,,---,0.01,VWS V14.01,2013-02-24 11:15:00,
2013-02-24 06:30:00,35.9,35.1,29.78,WNW,292,0.0,0.0,97,0.00,,---,0.01,VWS V14.01,2013-02-24 11:30:00,
2013-02-24 06:45:00,35.3,34.5,29.77,WNW,292,0.0,0.0,97,0.00,,---,0.01,VWS V14.01,2013-02-24 11:45:00,
2013-02-24 07:00:00,34.7,33.9,29.77,WNW,292,0.0,0.0,97,0.00,,---,0.01,VWS V14.01,2013-02-24 12:00:00,
2013-02-24 07:15:00,34.4,33.6,29.77,WNW,292,0.0,0.0,97,0.00,,---,0.01,VWS V14.01,2013-02-24 12:15:00,
2013-02-24 07:30:00,35.2,34.7,29.77,WNW,292,0.0,2.0,98,0.00,,---,0.01,VWS V14.01,2013-02-24 12:30:00,
2013-02-24 07:45:00,35.9,35.4,29.78,WNW,292,1.0,3.0,98,0.00,,---,0.01,VWS V14.01,2013-02-24 12:45:00,
2013-02-24 08:00:00,36.9,36.4,29.79,WSW,248,1.0,4.0,98,0.00,,---,0.01,VWS V14.01,2013-02-24 13:00:00,
2013-02-24 08:15:00,37.6,36.8,29.79,WSW,248,1.0,4.0,97,0.00,,---,0.01,VWS V14.01,2013-02-24 13:15:00,
2013-02-24 08:30:00,38.5,37.7,29.79,West,270,1.0,5.0,97,0.00,,---,0.01,VWS V14.01,2013-02-24 13:30:00,
2013-02-24 08:45:00,39.2,38.2,29.78,West,270,2.0,5.0,96,0.00,,---,0.01,VWS V14.01,2013-02-24 13:45:00,
2013-02-24 09:00:00,39.8,38.2,29.78,WNW,292,3.0,7.0,94,0.00,,---,0.01,VWS V14.01,2013-02-24 14:00:00,
2013-02-24 09:15:00,40.6,38.2,29.78,WSW,248,2.0,6.0,91,0.00,,---,0.01,VWS V14.01,2013-02-24 14:15:00,
2013-02-24 09:30:00,41.6,38.3,29.77,WSW,248,2.0,9.0,88,0.00,,---,0.01,VWS V14.01,2013-02-24 14:30:00,
2013-02-24 09:45:00,42.6,38.1,29.78,West,270,3.0,9.0,84,0.00,,---,0.01,VWS V14.01,2013-02-24 14:45:00,
2013-02-24 10:00:00,43.5,37.8,29.77,WNW,292,3.0,10.0,80,0.00,,---,0.01,VWS V14.01,2013-02-24 15:00:00,
2013-02-24 10:15:00,43.9,37.5,29.77,West,270,4.0,10.0,78,0.00,,---,0.01,VWS V14.01,2013-02-24 15:15:00,
2013-02-24 10:30:00,44.9,37.5,29.78,WNW,292,4.0,12.0,75,0.00,,---,0.01,VWS V14.01,2013-02-24 15:30:00,
2013-02-24 10:45:00,45.1,34.4,29.78,West,270,5.0,11.0,66,0.00,,---,0.01,VWS V14.01,2013-02-24 15:45:00,
2013-02-24 11:00:00,45.1,34.8,29.79,West,270,6.0,16.0,67,0.00,,---,0.01,VWS V14.01,2013-02-24 16:00:00,
2013-02-24 11:15:00,45.4,33.2,29.79,West,270,6.0,16.0,62,0.00,,---,0.01,VWS V14.01,2013-02-24 16:15:00,
2013-02-24 11:30:00,44.6,30.8,29.79,WNW,292,6.0,15.0,58,0.00,,---,0.01,VWS V14.01,2013-02-24 16:30:00,
2013-02-24 11:45:00,45.4,31.5,29.78,West,270,5.0,12.0,58,0.00,,---,0.01,VWS V14.01,2013-02-24 16:45:00,
2013-02-24 12:00:00,45.8,32.3,29.78,WSW,248,5.0,15.0,59,0.00,,---,0.01,VWS V14.01,2013-02-24 17:00:00,
2013-02-24 12:15:00,44.8,30.9,29.79,WNW,292,6.0,14.0,58,0.00,,---,0.01,VWS V14.01,2013-02-24 17:15:00,
2013-02-24 12:30:00,44.3,29.2,29.78,WNW,292,6.0,14.0,55,0.00,,---,0.01,VWS V14.01,2013-02-24 17:30:00,
2013-02-24 12:45:00,43.8,30.0,29.78,West,270,7.0,20.0,58,0.00,,---,0.01,VWS V14.01,2013-02-24 17:45:00,
2013-02-24 13:00:00,43.8,30.4,29.77,West,270,4.0,10.0,59,0.00,,---,0.01,VWS V14.01,2013-02-24 18:00:00,
2013-02-24 13:15:00,43.8,30.4,29.77,WNW,292,6.0,15.0,59,0.00,,---,0.01,VWS V14.01,2013-02-24 18:15:00,
2013-02-24 13:30:00,43.3,30.4,29.78,West,270,5.0,18.0,60,0.00,,---,0.01,VWS V14.01,2013-02-24 18:30:00,
2013-02-24 13:45:00,42.9,30.4,29.78,West,270,6.0,12.0,61,0.00,,---,0.01,VWS V14.01,2013-02-24 18:45:00,
2013-02-24 14:00:00,42.2,30.1,29.78,West,270,8.0,20.0,62,0.00,,---,0.01,VWS V14.01,2013-02-24 19:00:00,
2013-02-24 14:15:00,41.8,29.8,29.78,WNW,292,6.0,19.0,62,0.00,,---,0.01,VWS V14.01,2013-02-24 19:15:00,
2013-02-24 14:30:00,41.5,30.2,29.78,West,270,6.0,15.0,64,0.00,,---,0.01,VWS V14.01,2013-02-24 19:30:00,
2013-02-24 14:45:00,41.2,30.0,29.78,West,270,4.0,13.0,64,0.00,,---,0.01,VWS V14.01,2013-02-24 19:45:00,
2013-02-24 15:00:00,40.6,29.8,29.79,West,270,6.0,15.0,65,0.00,,---,0.01,VWS V14.01,2013-02-24 20:00:00,
2013-02-24 15:15:00,40.2,29.8,29.80,West,270,6.0,14.0,66,0.00,,---,0.01,VWS V14.01,2013-02-24 20:15:00,
2013-02-24 15:30:00,39.3,28.9,29.81,WSW,248,7.0,16.0,66,0.00,,---,0.01,VWS V14.01,2013-02-24 20:30:00,
2013-02-24 15:45:00,38.3,30.1,29.83,West,270,8.0,20.0,72,0.00,,---,0.01,VWS V14.01,2013-02-24 20:45:00,
2013-02-24 16:00:00,37.3,28.8,29.83,WNW,292,5.0,16.0,71,0.00,,---,0.01,VWS V14.01,2013-02-24 21:00:00,
2013-02-24 16:15:00,37.0,27.4,29.84,West,270,6.0,16.0,68,0.00,,---,0.01,VWS V14.01,2013-02-24 21:15:00,
2013-02-24 16:30:00,36.9,27.0,29.85,West,270,6.0,18.0,67,0.00,,---,0.01,VWS V14.01,2013-02-24 21:30:00,
2013-02-24 16:45:00,36.8,25.8,29.85,WNW,292,6.0,16.0,64,0.00,,---,0.01,VWS V14.01,2013-02-24 21:45:00,
2013-02-24 17:00:00,36.6,25.2,29.86,West,270,6.0,15.0,63,0.00,,---,0.01,VWS V14.01,2013-02-24 22:00:00,
2013-02-24 17:15:00,36.5,24.7,29.87,WNW,292,5.0,17.0,62,0.00,,---,0.01,VWS V14.01,2013-02-24 22:15:00,
2013-02-24 17:30:00,36.3,24.1,29.87,WNW,292,5.0,13.0,61,0.00,,---,0.01,VWS V14.01,2013-02-24 22:30:00,
2013-02-24 17:45:00,36.2,23.7,29.88,West,270,6.0,15.0,60,0.00,,---,0.01,VWS V14.01,2013-02-24 22:45:00,
2013-02-24 18:00:00,35.6,23.1,29.89,West,270,5.0,14.0,60,0.00,,---,0.01,VWS V14.01,2013-02-24 23:00:00,
2013-02-24 18:15:00,35.2,22.7,29.90,WNW,292,5.0,14.0,60,0.00,,---,0.01,VWS V14.01,2013-02-24 23:15:00,
2013-02-24 18:30:00,34.9,22.8,29.91,West,270,4.0,13.0,61,0.00,,---,0.01,VWS V14.01,2013-02-24 23:30:00,
2013-02-24 18:45:00,34.6,22.9,29.91,West,270,4.0,10.0,62,0.00,,---,0.01,VWS V14.01,2013-02-24 23:45:00,
2013-02-24 19:00:00,34.3,23.0,29.92,WNW,292,3.0,10.0,63,0.00,,---,0.01,VWS V14.01,2013-02-25 00:00:00,
2013-02-24 19:15:00,34.0,22.7,29.93,WNW,292,2.0,7.0,63,0.00,,---,0.01,VWS V14.01,2013-02-25 00:15:00,
2013-02-24 19:30:00,34.0,22.7,29.94,WSW,248,2.0,6.0,63,0.00,,---,0.01,VWS V14.01,2013-02-25 00:30:00,
2013-02-24 19:45:00,33.8,22.2,29.95,West,270,1.0,7.0,62,0.00,,---,0.01,VWS V14.01,2013-02-25 00:45:00,
2013-02-24 20:00:00,34.0,21.6,29.95,West,270,2.0,6.0,60,0.00,,---,0.01,VWS V14.01,2013-02-25 01:00:00,
2013-02-24 20:15:00,33.7,21.3,29.96,West,270,2.0,7.0,60,0.00,,---,0.01,VWS V14.01,2013-02-25 01:15:00,
2013-02-24 20:30:00,33.7,21.3,29.96,West,270,3.0,7.0,60,0.00,,---,0.01,VWS V14.01,2013-02-25 01:30:00,
2013-02-24 20:45:00,33.7,20.9,29.97,WNW,292,4.0,12.0,59,0.00,,---,0.01,VWS V14.01,2013-02-25 01:45:00,
2013-02-24 21:00:00,34.0,20.4,29.97,WNW,292,5.0,16.0,57,0.00,,---,0.01,VWS V14.01,2013-02-25 02:00:00,
2013-02-24 21:15:00,33.7,20.9,29.97,West,270,3.0,10.0,59,0.00,,---,0.01,VWS V14.01,2013-02-25 02:15:00,
2013-02-24 21:30:00,33.2,20.8,29.97,West,270,4.0,9.0,60,0.00,,---,0.01,VWS V14.01,2013-02-25 02:30:00,
2013-02-24 21:45:00,33.2,20.8,29.98,West,270,4.0,11.0,60,0.00,,---,0.01,VWS V14.01,2013-02-25 02:45:00,
2013-02-24 22:00:00,32.9,20.9,29.98,West,270,3.0,8.0,61,0.00,,---,0.01,VWS V14.01,2013-02-25 03:00:00,
2013-02-24 22:15:00,32.9,20.9,29.98,West,270,3.0,13.0,61,0.00,,---,0.01,VWS V14.01,2013-02-25 03:15:00,
2013-02-24 22:30:00,32.5,20.9,29.99,WNW,292,2.0,6.0,62,0.00,,---,0.01,VWS V14.01,2013-02-25 03:30:00,
2013-02-24 22:45:00,32.2,21.0,29.99,WNW,292,1.0,6.0,63,0.00,,---,0.01,VWS V14.01,2013-02-25 03:45:00,
2013-02-24 23:00:00,32.4,21.2,30.00,WNW,292,2.0,6.0,63,0.00,,---,0.01,VWS V14.01,2013-02-25 04:00:00,
2013-02-24 23:15:00,32.4,21.2,29.99,West,270,1.0,6.0,63,0.00,,---,0.01,VWS V14.01,2013-02-25 04:15:00,
2013-02-24 23:30:00,32.5,20.9,29.99,WNW,292,3.0,11.0,62,0.00,,---,0.01,VWS V14.01,2013-02-25 04:30:00,
2013-02-24 23:45:00,32.4,21.2,29.99,WNW,292,4.0,11.0,63,0.00,,---,0.01,VWS V14.01,2013-02-25 04:45:00,